Leonardo Figueiredo

Chefscout - Juventude
11 Mär 2027
Donnerstag
Verarbeitung

Persönlichkeit

Anpassungsfähigkeit (11) Ehrgeiz (14) Kontroverse (16) Loyalität (3) Druck (6) Professionalität (8) Fairness (2) Temperament (19)

Profil

Trainerstil Demokratisch
Lizenz Nationale A
Entschlossenheit 7
Menschenführung 9
Motivation 9
Disziplin 4
Arbeitszufriedenheit
50%
Ermüdung
0%
Rolle Chefscout
Gehalt 68.6K p/W
Vertrag 14.03.2029

Leistung

Verhalten Normal
Trainingseffektivität
26%
Spielerentwicklung
20%
Verletzungsprävention
25%
Taktische Umsetzung
55%

Letzte Ereignisse

Spieler begutachtet jetzt
Nahm an einer Scouting-Besprechung teil jetzt
Nahm an einer Scouting-Besprechung teil jetzt
Nahm an einer Scouting-Besprechung teil jetzt
Nahm an einer Scouting-Besprechung teil jetzt
Empfahl ein Transferziel jetzt
Empfahl ein Transferziel jetzt
Empfahl ein Transferziel jetzt

Aktuell beobachtet

192
Spieler Verein Status Fähigkeit Vertrauen Beobachtet Zuletzt beobachtet Letzte Stimme
Salvador Blopá Sporting CP Aktiv 112 / 124 40% 3 10.03.2027 -
André Lacximicant Estoril Praia Aktiv 122 / 111 40% 2 10.03.2027 -
Tom Cannon Sheffield United Aktiv 136 / 127 40% 3 10.03.2027 -
Othmane Maamma Watford Aktiv 119 / 134 40% 1 10.03.2027 -
Lovro Zvonarek Estrela da Amadora Aktiv 114 / 123 40% 1 10.03.2027 -
Jackson Muleka Konyaspor Aktiv 138 / 126 40% 1 10.03.2027 -
Alfonso Trezza Arouca Aktiv 119 / 122 40% 5 08.03.2027 -
Figueiredo Alverca Aktiv 128 / 122 40% 2 08.03.2027 -
Dawda Camara Alverca Aktiv 111 / 113 40% 5 08.03.2027 -
Assane Diao Como Aktiv 146 / 156 40% 1 06.03.2027 -
Mohamed-Ali Cho Hull City Aktiv 135 / 133 40% 1 06.03.2027 -
Kwame Opoku Asante Kotoko Aktiv 93 / 97 40% 1 06.03.2027 -
Leandro Martins Benfica Aktiv 96 / 89 40% 3 05.03.2027 -
Christ Inao Oulaï Fiorentina Aktiv 138 / 136 40% 1 05.03.2027 -
Edwin Asamoah Berekum Chelsea Aktiv 80 / 92 40% 1 05.03.2027 -
Gustavo Silva Vitoria Guimaraes Aktiv 130 / 119 40% 2 03.03.2027 -
Pablo Rodríguez Lech Aktiv 133 / 132 40% 3 03.03.2027 -
Morufdeen Moshood Leixões Aktiv 104 / 104 40% 1 03.03.2027 -
Daniel Awuni Aduana Stars Aktiv 86 / 91 40% 1 03.03.2027 -
Rocco Vata Watford Aktiv 129 / 127 40% 1 03.03.2027 -
Raymond Agyemang Aduana Stars Aktiv 78 / 82 40% 1 01.03.2027 -
Cheveyo Tsawa Club Brugge Aktiv 114 / 127 40% 1 01.03.2027 -
Ilyas Ansah Hull City Aktiv 118 / 127 40% 1 27.02.2027 -
Jonathan Dellarossa Lokomotiv Plovdiv Aktiv 122 / 121 40% 1 27.02.2027 -
Morgan Whittaker Middlesbrough Aktiv 124 / 138 40% 3 26.02.2027 -
Lucas Duarte Felgueiras Aktiv 98 / 110 40% 2 26.02.2027 -
Dylan Nandín Arouca Aktiv 112 / 107 40% 2 26.02.2027 -
Yanis Begraoui Estoril Praia Aktiv 127 / 139 40% 7 25.02.2027 -
Sam Greenwood Bristol City Aktiv 111 / 114 40% 2 25.02.2027 -
Rafael Lobato Rio Ave Aktiv 115 / 119 40% 1 25.02.2027 -
Ethan Williams Peterborough United Aktiv 119 / 115 40% 1 25.02.2027 -
Jalen Blesa Rio Ave Aktiv 108 / 114 40% 6 23.02.2027 -
Aune Heggebø West Bromwich Albion Aktiv 120 / 132 40% 3 23.02.2027 -
Sorriso Famalicao Aktiv 137 / 128 40% 5 22.02.2027 -
Duk Atlas Aktiv 111 / 117 40% 1 21.02.2027 -
Lucas Varaldo Morelia Aktiv 111 / 120 40% 1 21.02.2027 -
Ianis Stoica Estrela da Amadora Aktiv 111 / 113 40% 2 20.02.2027 -
William Gomes Porto Aktiv 150 / 149 40% 5 20.02.2027 -
Justo Giani Umraniyespor Aktiv 131 / 114 40% 2 20.02.2027 -
André Miranda Porto Aktiv 94 / 108 40% 1 20.02.2027 -
Vinícius Lopes Santa Clara Aktiv 133 / 126 40% 3 19.02.2027 -
Josh Coburn Millwall Aktiv 109 / 114 40% 2 19.02.2027 -
Eduardo Fernandes Benfica Aktiv 109 / 109 40% 1 17.02.2027 -
Luphumlo Sifumba Maritzburg United Aktiv 80 / 93 40% 1 17.02.2027 -
Camilo Durán Bloemfontein Celtic Aktiv 130 / 122 40% 1 16.02.2027 -
Luccas Paraízo Leixões Aktiv 104 / 114 40% 1 16.02.2027 -
Luis Vázquez Birmingham Aktiv 137 / 128 40% 1 14.02.2027 -
Negueba Mirassol Aktiv 126 / 117 40% 4 13.02.2027 -
Percy Vilakazi Free State Stars Aktiv 123 / 101 40% 2 13.02.2027 -
Víctor Guzmán Sporting CP Aktiv 100 / 104 40% 2 12.02.2027 -
Etiosa Ighodaro Kaizer Chiefs Aktiv 97 / 119 40% 1 12.02.2027 -
Tamble Monteiro Rio Ave Aktiv 121 / 122 40% 1 11.02.2027 -
Victor Froholdt Porto Aktiv 139 / 162 40% 5 10.02.2027 -
Lewis Miley Newcastle United Aktiv 132 / 158 40% 2 10.02.2027 -
Giorgos Koutsias Famalicao Aktiv 120 / 122 40% 2 10.02.2027 -
Calum Agius Crewe Alexandra Aktiv 93 / 91 40% 1 10.02.2027 -
Eddie Nketiah Crystal Palace Aktiv 136 / 139 40% 2 08.02.2027 -
Aaron Connolly Leyton Orient Aktiv 135 / 122 40% 1 08.02.2027 -
Bojan Radulović Huddersfield Town Aktiv 105 / 121 40% 1 08.02.2027 -
Mathias Jørgensen Blackburn Rovers Aktiv 112 / 117 40% 1 07.02.2027 -
Malik Mothersille Stockport County Aktiv 105 / 110 40% 1 06.02.2027 -
Nathan Fogaça Fortaleza Aktiv 117 / 117 40% 6 05.02.2027 -
Leandro Antonetti Estrela da Amadora Aktiv 112 / 110 40% 1 05.02.2027 -
Gabriel Silva Braga Aktiv 133 / 125 40% 2 04.02.2027 -
Rhian Brewster Oleksandriya Aktiv 111 / 117 40% 1 03.02.2027 -
Henrique Araújo Casa Pia Aktiv 121 / 115 40% 1 02.02.2027 -
Tyreece Campbell Charlton Athletic Aktiv 124 / 120 40% 1 01.02.2027 -
Tiago Leite Felgueiras Aktiv 107 / 96 40% 1 01.02.2027 -
Tiago Freitas Benfica Aktiv 117 / 113 40% 3 31.01.2027 -
Alpha Touré FC Metz Aktiv 104 / 112 40% 1 31.01.2027 -
Rivaldo Mkhize Black Aces Aktiv 71 / 92 40% 1 31.01.2027 -
Henrique Silva Santa Clara Aktiv 108 / 118 40% 2 30.01.2027 -
Milan Roganović Racing Genk Aktiv 114 / 125 40% 1 30.01.2027 -
Caleb Yirenkyi Coventry City Aktiv 125 / 130 40% 3 29.01.2027 -
Jenson Jones Walsall Aktiv 98 / 104 40% 1 29.01.2027 -
Kazunari Kita Real Sociedad Aktiv 105 / 103 40% 1 29.01.2027 -
Toni Tamarit Alverca Aktiv 109 / 120 40% 2 28.01.2027 -
Ivan Giraldo Valencia Aktiv 125 / 121 40% 1 28.01.2027 -
Bernardo Lima Porto Aktiv 107 / 100 40% 1 27.01.2027 -
Gonçalo Oliveira Benfica Aktiv 120 / 115 40% 1 27.01.2027 -
João Teixeira Porto Aktiv 114 / 111 40% 4 26.01.2027 -
Surprise Manthosi Polokwane City Aktiv 101 / 96 40% 1 26.01.2027 -
Moncef Zekri Sporting CP Aktiv 86 / 99 40% 2 25.01.2027 -
Germán Barbas Burgos Aktiv 114 / 120 40% 2 24.01.2027 -
Lucas Høgsberg RC Strasbourg Aktiv 140 / 148 40% 2 21.01.2027 -
Dayann Methalie Sunderland Aktiv 141 / 134 40% 1 21.01.2027 -
James Dornelly Peterborough United Aktiv 97 / 113 40% 1 18.01.2027 -
Diogo Monteiro Tondela Aktiv 104 / 108 40% 1 17.01.2027 -
Kyriani Sabbe Club Brugge Aktiv 131 / 121 40% 1 17.01.2027 -
Martim Fernandes Porto Aktiv 136 / 134 40% 1 15.01.2027 -
François Gaillard Tours Aktiv 126 / 139 40% 1 15.01.2027 -
Ivan M'Bahia Clermont Foot Aktiv 112 / 120 40% 2 12.01.2027 -
Miguel Figueiredo Benfica Aktiv 117 / 111 40% 2 10.01.2027 -
James Bacca La Equidad Aktiv 123 / 131 40% 1 10.01.2027 -
Pape Diong Westerlo Aktiv 103 / 113 40% 1 09.01.2027 -
José Silva Gil Vicente Aktiv 110 / 109 40% 1 04.01.2027 -
Abraham Marcus Estrela da Amadora Aktiv 117 / 121 40% 4 22.12.2026 -
El Hadji Malick Diouf Brentford Aktiv 151 / 150 40% 1 03.12.2026 -
Patrick Berg Lecce Aktiv 141 / 141 62% 1 01.12.2026 Befürworten
Sampson Dweh Mallorca Aktiv 133 / 134 66% 1 01.12.2026 Befürworten
Mao Hosoya Olympique de Marseille Aktiv 134 / 135 67% 1 01.12.2026 Befürworten
Tobias Mohr Standard Liege Verloren 117 / 117 68% 1 01.12.2026 -
Pau Víctor Braga Aktiv 129 / 138 40% 5 29.11.2026 -
Jordan van der Gaag Leiria Aktiv 118 / 115 40% 3 29.11.2026 -
Lorougnon Gohi Académico de Viseu Aktiv 123 / 115 40% 4 29.11.2026 -
Beni Mukendi Vitoria Guimaraes Aktiv 120 / 134 40% 2 27.11.2026 -
Finn van Breemen Famalicao Aktiv 117 / 123 40% 3 27.11.2026 -
Paulo Moreira Nacional Aktiv 119 / 114 40% 2 27.11.2026 -
Nuno Santos Mamelodi Sundowns Aktiv 142 / 135 40% 3 27.11.2026 -
Loum Tchaouna Coventry City Aktiv 136 / 146 40% 3 23.11.2026 -
Mario Dorgeles Braga Aktiv 141 / 141 40% 4 23.11.2026 -
Simo Maritimo Aktiv 116 / 106 40% 3 22.11.2026 -
Jordan Holsgrove Estoril Praia Aktiv 129 / 132 40% 4 22.11.2026 -
Taichi Fukui Arouca Aktiv 132 / 127 40% 2 21.11.2026 -
Tom Fellows Southampton Aktiv 141 / 136 40% 2 21.11.2026 -
Gabriel Pec Cruzeiro Aktiv 126 / 137 40% 1 19.11.2026 -
Marc Baró Leiria Aktiv 111 / 106 40% 1 18.11.2026 -
Cristian Ferreira Académico de Viseu Aktiv 108 / 116 40% 5 17.11.2026 -
Juan María Alcedo Torreense Aktiv 111 / 116 40% 5 16.11.2026 -
Tyrhys Dolan Espanyol Aktiv 138 / 147 40% 1 16.11.2026 -
Roberto Fernández Braga Aktiv 132 / 146 40% 5 13.11.2026 Beobachten
Mateja Stjepanović Moreirense Aktiv 111 / 122 40% 2 12.11.2026 Mehr Infos nötig
Ricard Sánchez Estoril Praia Aktiv 116 / 133 40% 6 08.11.2026 -
Gianluca Prestianni Benfica Aktiv 133 / 133 40% 4 08.11.2026 -
Bongani Zungu Ajax Cape Town Aktiv 115 / 128 40% 1 08.11.2026 -
Víctor Gómez Braga Aktiv 130 / 141 40% 4 07.11.2026 -
Iker Benito Queretaro Aktiv 129 / 125 40% 2 05.11.2026 -
Laurent De Ketelaere Utrecht Aktiv 150 / 150 40% 2 05.11.2026 -
Danilo Botafogo Aktiv 138 / 132 40% 2 04.11.2026 -
Rafik Guitane Estoril Praia Aktiv 132 / 131 40% 2 04.11.2026 -
Gustavo Martins Grêmio Aktiv 124 / 119 40% 2 04.11.2026 -
Miguel Baeza Nacional Aktiv 126 / 111 40% 1 04.11.2026 -
Jack Clarke Ipswich Town Aktiv 139 / 128 40% 1 03.11.2026 -
Soma Anzai FC Tokyo Aktiv 112 / 118 40% 4 01.11.2026 -
Caio Alexandre Bahia Aktiv 135 / 129 40% 1 01.11.2026 -
Juan Pablo Freytes Fluminense Aktiv 131 / 127 40% 1 01.11.2026 -
MT Santa Clara Aktiv 114 / 121 40% 1 30.10.2026 -
Bradley Zwane SuperSport United Aktiv 123 / 112 40% 1 29.10.2026 -
Miguel Reisinho Feirense Aktiv 114 / 117 40% 1 29.10.2026 -
Brenner Santa Clara Aktiv 100 / 104 40% 1 28.10.2026 -
Finn Azaz Southampton Aktiv 137 / 116 40% 1 27.10.2026 -
Carlos Forbs Club Brugge Aktiv 134 / 139 40% 1 26.10.2026 -
Ole Pohlmann Rio Ave Aktiv 125 / 123 40% 4 25.10.2026 -
Mathias De Amorim Famalicao Aktiv 142 / 125 40% 2 24.10.2026 -
Pedro Maranhão Tondela Aktiv 103 / 110 40% 1 23.10.2026 -
Chiquinho Alverca Aktiv 130 / 126 40% 3 22.10.2026 -
Martinelli Fluminense Aktiv 145 / 144 40% 1 22.10.2026 Mehr Infos nötig
Marvin Elimbi Gil Vicente Aktiv 123 / 114 40% 1 22.10.2026 -
Naïs Djouahra Arouca Aktiv 121 / 126 40% 1 22.10.2026 -
Joe Hodge Tondela Aktiv 119 / 121 40% 1 21.10.2026 -
David Sousa Casa Pia Aktiv 130 / 116 40% 2 20.10.2026 -
Jefferson Duque Cortulua Aktiv 132 / 118 40% 1 18.10.2026 -
Manu Pozo Torreense Aktiv 120 / 110 40% 2 17.10.2026 -
Diego Lainez Tigres Aktiv 135 / 133 40% 2 14.10.2026 -
Valery Académico de Viseu Aktiv 120 / 119 40% 1 12.10.2026 -
Gustaf Lagerbielke Braga Aktiv 147 / 131 40% 1 12.10.2026 -
Rodrigo Pinheiro Famalicao Aktiv 140 / 127 40% 2 09.10.2026 -
João Mendes Vitoria Guimaraes Aktiv 123 / 118 40% 5 08.10.2026 -
Jean-Baptiste Gorby Braga Aktiv 130 / 124 40% 2 03.10.2026 -
Francisco Moura Porto Aktiv 146 / 127 40% 1 03.10.2026 -
Martín Tejón Maritimo Aktiv 120 / 112 40% 1 02.10.2026 -
Xavi Sintes Estoril Praia Aktiv 136 / 132 40% 1 29.09.2026 -
Gonçalo Nogueira Vitoria Guimaraes Aktiv 116 / 127 40% 1 29.09.2026 -
Luciano Juba Bahia Aktiv 140 / 130 40% 1 29.09.2026 -
Malik Sellouki Rio Ave Aktiv 97 / 105 40% 1 28.09.2026 -
Carlos Álvarez Club America Aktiv 128 / 132 40% 1 25.09.2026 -
Diogo Travassos Braga Aktiv 118 / 118 40% 2 24.09.2026 -
Luan Patrick Estrela da Amadora Aktiv 122 / 113 40% 1 24.09.2026 -
Tetê Grêmio Aktiv 121 / 131 40% 1 21.09.2026 -
Marco Pašalić Orlando City Aktiv 130 / 129 40% 1 20.09.2026 -
Roni AVS Aktiv 121 / 113 40% 1 19.09.2026 -
Matheus Dias Nacional Aktiv 113 / 119 40% 2 17.09.2026 -
Vasco Moreira Alverca Aktiv 121 / 116 40% 1 17.09.2026 -
Andreas Schjelderup Benfica Aktiv 125 / 147 40% 1 17.09.2026 -
Ousmane Diomande Nottingham Forest Aktiv 152 / 161 40% 1 17.09.2026 -
Hugo Pérez Torreense Aktiv 105 / 120 40% 1 16.09.2026 -
Tony Strata Vitoria Guimaraes Aktiv 114 / 131 40% 1 16.09.2026 -
Telasco Segovia Inter Miami CF Aktiv 127 / 135 40% 1 15.09.2026 -
Weverson Gil Vicente Aktiv 103 / 111 40% 1 13.09.2026 -
Pedro Porro Tottenham Aktiv 132 / 144 40% 2 11.09.2026 -
Santi García Gil Vicente Aktiv 131 / 136 40% 1 11.09.2026 -
Francisco Domingues Moreirense Aktiv 104 / 109 40% 1 10.09.2026 -
Luis Sinisterra Cruzeiro Aktiv 145 / 144 40% 1 09.09.2026 -
Zé Vitor Benfica Aktiv 134 / 135 40% 1 08.09.2026 -
João Carvalho Estoril Praia Aktiv 125 / 128 40% 1 05.08.2026 -
Demir Ege Tıknaz Braga Aktiv 126 / 118 40% 1 04.08.2026 -
Antonio Sivera Alavés Aktiv 154 / 135 40% 1 03.08.2026 -
Luis Malagón Club America Aktiv 134 / 131 40% 1 03.08.2026 -
Matheus Mendes Alverca Aktiv 111 / 112 40% 1 02.08.2026 -
Ignacio de Arruabarrena Arouca Aktiv 115 / 133 40% 1 02.08.2026 -
Kaique Sporting CP Aktiv 114 / 111 40% 1 01.08.2026 -
Patrick Sequeira Casa Pia Aktiv 135 / 119 40% 1 01.08.2026 -